Seattle Boeing, WA

9:01 AM PDT on May 23, 2017 (GMT -0700)
Boeing Field-King County International

Weather History for KBFI - March, 2012

Change the Weather History Date:

Thursday, March 8, 2012

  Actual Average Record
Temperature  
Mean Temperature 48 °F -  
Max Temperature 61 °F 52 °F 66 °F (2005)
Min Temperature 35 °F 38 °F 28 °F (1951)
Degree Days  
Heating Degree Days 17    
Moisture  
Dew Point 34 °F    
Average Humidity 63    
Maximum Humidity 89    
Minimum Humidity 36    
Precipitation  
Precipitation 0.00 in - - ()
Sea Level Pressure  
Sea Level Pressure 30.25 in    
Wind  
Wind Speed 2 mph (SSE)    
Max Wind Speed 8 mph    
Max Gust Speed -    
Visibility 10 miles    
Events      
Averages and records for this station are not official NWS values.
T = Trace of Precipitation, MM = Missing Value Source: NWS Daily Summary

Daily Weather History Graph

Daily Weather History Graph

Search for Another Location

Airport or City:

Trip Planner

Search our weather history database for the weather conditions in past years. The results will help you decide how hot, cold, wet, or windy it might be!

Date:

Astronomy

Mar. 08, 2012 Rise Set
Actual Time 6:34 AM PST 6:05 PM PST
Civil Twilight 6:04 AM PST 6:36 PM PST
Nautical Twilight 5:28 AM PST 7:11 PM PST
Astronomical Twilight 4:52 AM PST 7:47 PM PST
Moon 7:07 PM PST (3/8) 6:16 AM PST (3/8)
Length of Visible Light 12h 31m
Length of Day
11h 30m
Full, 100% of the Moon is Illuminated
Mar 8
Full
Mar 14
Last Quarter
Mar 22
New
Mar 30
First Quarter
Apr 6
Full

Hourly Weather History & Observations

Time (PST) Temp. Windchill Dew Point Humidity Pressure Visibility Wind Dir Wind Speed Gust Speed Precip Events Conditions
12:53 AM 37.0 °F 34.5 °F 28.9 °F 73% 30.39 in 10.0 mi North 3.5 mph - N/A   Clear
1:53 AM 36.0 °F - 28.9 °F 76% 30.38 in 10.0 mi Calm Calm - N/A   Clear
2:53 AM 37.0 °F - 30.9 °F 79% 30.36 in 10.0 mi Calm Calm - N/A   Clear
3:53 AM 36.0 °F - 30.9 °F 82% 30.35 in 10.0 mi Calm Calm - N/A   Clear
4:53 AM 36.0 °F 33.3 °F 30.9 °F 82% 30.33 in 10.0 mi North 3.5 mph - N/A   Clear
5:53 AM 35.1 °F - 32.0 °F 89% 30.32 in 10.0 mi Calm Calm - N/A   Partly Cloudy
6:53 AM 36.0 °F - 32.0 °F 86% 30.30 in 10.0 mi Calm Calm - N/A   Scattered Clouds
7:53 AM 39.0 °F - 33.1 °F 79% 30.28 in 10.0 mi Calm Calm - N/A   Scattered Clouds
8:53 AM 41.0 °F - 32.0 °F 70% 30.27 in 10.0 mi Calm Calm - N/A   Overcast
9:53 AM 44.1 °F - 34.0 °F 68% 30.27 in 10.0 mi Calm Calm - N/A   Mostly Cloudy
10:53 AM 46.0 °F - 34.0 °F 63% 30.26 in 10.0 mi Calm Calm - N/A   Mostly Cloudy
11:53 AM 50.0 °F - 33.1 °F 52% 30.24 in 10.0 mi Calm Calm - N/A   Mostly Cloudy
12:53 PM 51.1 °F - 36.0 °F 56% 30.21 in 10.0 mi Calm Calm - N/A   Mostly Cloudy
1:53 PM 55.9 °F - 35.1 °F 45% 30.18 in 10.0 mi South 3.5 mph - N/A   Mostly Cloudy
2:53 PM 59.0 °F - 37.0 °F 44% 30.16 in 10.0 mi SE 8.1 mph - N/A   Clear
3:53 PM 61.0 °F - 35.1 °F 38% 30.17 in 10.0 mi South 5.8 mph - N/A   Clear
4:53 PM 61.0 °F - 34.0 °F 36% 30.16 in 10.0 mi SSE 6.9 mph - N/A   Clear
5:53 PM 60.1 °F - 34.0 °F 38% 30.16 in 10.0 mi SSW 5.8 mph - N/A   Clear
6:53 PM 57.9 °F - 35.1 °F 42% 30.17 in 10.0 mi Variable 5.8 mph - N/A   Clear
7:53 PM 54.0 °F - 37.0 °F 53% 30.18 in 10.0 mi Calm Calm - N/A   Clear
8:53 PM 52.0 °F - 35.1 °F 53% 30.20 in 10.0 mi Variable 4.6 mph - N/A   Clear
9:53 PM 46.9 °F - 36.0 °F 66% 30.22 in 10.0 mi SSE 8.1 mph - N/A   Clear
10:53 PM 45.0 °F 41.2 °F 37.0 °F 74% 30.23 in 10.0 mi SE 6.9 mph - N/A   Clear
11:53 PM 45.0 °F 40.6 °F 37.9 °F 76% 30.24 in 10.0 mi SSE 8.1 mph - N/A   Clear